This is the latest recevied weather packets stored in our database for station/object ke5jzm-1. If no packets are shown the sender has not sent any weather packets the latest 10 day(s).
| Time | Temp. | Humidity | Pressure | Rain* | Wind** | Luminosity | Snow |
|---|---|---|---|---|---|---|---|
| 1778357038 | 24.44° C | 63% | 1011.7 hPa | 1.52 mm | - | 143 W/m² | - |
| 1778356978 | 24.44° C | 63% | 1011.7 hPa | 1.52 mm | - | 146 W/m² | - |
| 1778356917 | 24.44° C | 63% | 1011.7 hPa | 1.52 mm | - | 151 W/m² | - |
| 1778356858 | 24.44° C | 63% | 1011.8 hPa | 1.52 mm | - | 153 W/m² | - |
| 1778356797 | 24.44° C | 63% | 1011.8 hPa | 1.52 mm | - | 156 W/m² | - |
| 1778356738 | 24.44° C | 63% | 1011.8 hPa | 1.52 mm | - | 158 W/m² | - |
| 1778356678 | 24.44° C | 63% | 1011.9 hPa | 1.52 mm | - | 159 W/m² | - |
| 1778356619 | 24.44° C | 63% | 1011.9 hPa | 1.52 mm | - | 157 W/m² | - |
| 1778356557 | 24.44° C | 63% | 1012 hPa | 1.78 mm | - | 154 W/m² | - |
| 1778356498 | 24.44° C | 63% | 1012 hPa | 1.78 mm | - | 151 W/m² | - |
| 1778356438 | 24.44° C | 63% | 1012 hPa | 1.78 mm | - | 146 W/m² | - |
| 1778356379 | 24.44° C | 63% | 1012 hPa | 1.78 mm | - | 142 W/m² | - |
| 1778356317 | 24.44° C | 63% | 1012 hPa | 1.78 mm | - | 143 W/m² | - |
| 1778356296 | 24.44° C | 63% | 1011.9 hPa | 1.78 mm | - | 146 W/m² | - |
| 1778356198 | 24.44° C | 63% | 1012 hPa | 2.03 mm | - | 147 W/m² | - |
| 1778356138 | 24.44° C | 63% | 1011.9 hPa | 2.03 mm | - | 148 W/m² | - |
| 1778356078 | 24.44° C | 63% | 1012 hPa | 2.29 mm | - | 152 W/m² | - |
| 1778356019 | 24.44° C | 63% | 1012 hPa | 2.29 mm | - | 160 W/m² | - |
| 1778355958 | 24.44° C | 63% | 1012.1 hPa | 2.54 mm | - | 171 W/m² | - |
| 1778355898 | 24.44° C | 63% | 1012.1 hPa | 2.54 mm | - | 179 W/m² | - |
| 1778355840 | 24.44° C | 63% | 1012.1 hPa | 2.54 mm | - | 174 W/m² | - |
| 1778355779 | 24.44° C | 63% | 1012.2 hPa | 2.79 mm | - | 161 W/m² | - |
| 1778355719 | 24.44° C | 63% | 1012.3 hPa | 2.79 mm | - | 146 W/m² | - |
| 1778355658 | 24.44° C | 63% | 1012.3 hPa | 2.79 mm | - | 133 W/m² | - |
| 1778355598 | 24.44° C | 63% | 1012.4 hPa | 3.05 mm | - | 127 W/m² | - |
* Rain latest hour (hover to see other rain measurements)
** Current wind speed in m/s (hover to see current wind gust speed)